Weather History for Juliana Airport, Saint Maarten, Saint Maartin

Change the Weather History Date:

Saturday, July 20, 2013

  Actual Average Record
Temperature  
Mean Temperature 84 °F -  
Max Temperature 88 °F 87 °F - ()
Min Temperature 80 °F 77 °F - ()
Cooling Degree Days 19    
Growing Degree Days 34 (Base 50)    
Moisture  
Dew Point 73 °F    
Average Humidity 69    
Maximum Humidity 79    
Minimum Humidity 52    
Precipitation  
Precipitation 0.02 in 0.12 in - ()
Sea Level Pressure  
Sea Level Pressure 30.05 in    
Wind  
Wind Speed 12 mph ()    
Max Wind Speed 20 mph    
Max Gust Speed 21 mph    
Visibility 8.0 miles    
Events Rain    
T = Trace of Precipitation, MM = Missing Value Source: Averaged Metar Reports

Daily Weather History Graph

Daily Weather History Graph

Search for Another Location

Airport:

Trip Planner

Search our weather history database for the weather conditions in past years. The results will help you decide how hot, cold, wet, or windy it might be!

Date:

Astronomy

Jul. 20, 2013 Rise Set
Actual Time 5:46 AM AST 6:50 PM AST
Civil Twilight 5:23 AM AST 7:14 PM AST
Nautical Twilight 4:55 AM AST 7:42 PM AST
Astronomical Twilight 4:26 AM AST 8:10 PM AST
Moon 4:50 PM AST (7/20) 3:21 AM AST (7/20)
Length of Visible Light 13h 50m
Length of Day
13h 03m
Waxing Gibbous, 93% of the Moon is Illuminated
Jul 20
Waxing Gibbous
Jul 22
Full
Jul 29
Last Quarter
Aug 6
New
Aug 14
First Quarter

Hourly Weather History & Observations

Time (AST) Temp. Heat Index Dew Point Humidity Pressure Visibility Wind Dir Wind Speed Gust Speed Precip Events Conditions
12:00 AM 82.4 °F 88.2 °F 73.4 °F 74% 30.09 in 6.2 mi ENE 9.2 mph - N/A   Mostly Cloudy
1:00 AM 82.4 °F 88.2 °F 73.4 °F 74% 30.06 in 6.2 mi East 9.2 mph - N/A   Partly Cloudy
2:00 AM 82 °F - 72 °F 66% 30.06 in 9 mi East 9.2 mph - - Rain Light Rain Showers
2:00 AM 82.4 °F 88.2 °F 73.4 °F 74% 30.04 in 6.2 mi East 9.2 mph 20.7 mph N/A   Partly Cloudy
3:00 AM 80.6 °F 85.4 °F 73.4 °F 79% 30.04 in 6.2 mi ENE 9.2 mph - N/A Rain Light Rain Showers
4:00 AM 80.6 °F 84.6 °F 71.6 °F 74% 30.04 in 6.2 mi East 10.4 mph - N/A   Partly Cloudy
5:00 AM 81 °F - 72 °F 68% 30.05 in 9 mi East 12.7 mph - -   Partly Cloudy
5:00 AM 80.6 °F 84.6 °F 71.6 °F 74% 30.04 in 6.2 mi East 12.7 mph - N/A   Partly Cloudy
6:00 AM 80.6 °F 85.4 °F 73.4 °F 79% 30.04 in 6.2 mi East 9.2 mph - N/A   Partly Cloudy
7:00 AM 82.4 °F 89.5 °F 75.2 °F 79% 30.06 in 6.2 mi ENE 10.4 mph - N/A   Scattered Clouds
8:00 AM 84 °F - 74 °F 66% 30.08 in 9 mi East 15.0 mph - -   Widespread Dust
8:00 AM 84.2 °F 92.3 °F 75.2 °F 74% 30.06 in 6.2 mi ENE 16.1 mph - N/A   Partly Cloudy
9:00 AM 86.0 °F 93.4 °F 73.4 °F 66% 30.09 in 6.2 mi East 17.3 mph - N/A   Scattered Clouds
10:00 AM 80.6 °F 85.4 °F 73.4 °F 79% 30.09 in 6.2 mi East 8.1 mph - N/A Rain Light Rain Showers
11:00 AM 85 °F - 76 °F 67% 30.09 in 16 mi East 17.3 mph - - Rain Light Rain Showers
11:00 AM 86.0 °F 95.1 °F 75.2 °F 70% 30.06 in 6.2 mi East 17.3 mph - N/A   Scattered Clouds
12:00 PM 87.8 °F 95.6 °F 73.4 °F 62% 30.06 in 6.2 mi East 13.8 mph - N/A   Scattered Clouds
1:00 PM 87.8 °F 95.6 °F 73.4 °F 62% 30.06 in 6.2 mi East 18.4 mph - N/A   Scattered Clouds
2:00 PM 89 °F - 74 °F 52% 30.06 in 16 mi East 16.1 mph - -   Partly Cloudy
2:00 PM 87.8 °F 95.6 °F 73.4 °F 62% 30.06 in 6.2 mi East 16.1 mph - N/A   Scattered Clouds
3:00 PM 87.8 °F 95.6 °F 73.4 °F 62% 30.04 in 6.2 mi ESE 13.8 mph - N/A   Scattered Clouds
4:00 PM 87.8 °F 95.6 °F 73.4 °F 62% 30.01 in 6.2 mi East 15.0 mph - N/A   Scattered Clouds
5:00 PM 86 °F - 72 °F 55% 30.02 in 16 mi East 18.4 mph - -   Partly Cloudy
5:00 PM 86.0 °F 91.8 °F 71.6 °F 62% 30.01 in 6.2 mi East 18.4 mph - N/A   Scattered Clouds
6:00 PM 84.2 °F 90.9 °F 73.4 °F 70% 30.01 in 6.2 mi East 19.6 mph - N/A   Partly Cloudy
7:00 PM 84.2 °F 89.6 °F 71.6 °F 66% 30.04 in 6.2 mi East 15.0 mph - N/A   Partly Cloudy
8:00 PM 83 °F - 74 °F 66% 30.04 in 16 mi East 16.1 mph - -   Partly Cloudy
8:00 PM 82.4 °F 88.2 °F 73.4 °F 74% 30.04 in 6.2 mi East 16.1 mph - N/A   Mostly Cloudy
9:00 PM 82.4 °F 88.2 °F 73.4 °F 74% 30.04 in 6.2 mi East 15.0 mph - N/A   Mostly Cloudy
10:00 PM 82.4 °F 87.2 °F 71.6 °F 70% 30.04 in 6.2 mi East 19.6 mph - N/A   Scattered Clouds
11:00 PM 82 °F - 73 °F 67% 30.06 in 16 mi East 16.1 mph - -   Partly Cloudy
11:00 PM 82.4 °F 88.2 °F 73.4 °F 74% 30.06 in 6.2 mi East 16.1 mph - N/A   Scattered Clouds